[[{"header":{"parameterUnit":"m.s-1","parameterCategory":1,"la1":30.2991,"la2":30.254,"lo1":-89.0895,"lo2":-89.0444,"dy":0.0017,"dx":0.0017,"nx":28,"ny":28,"refTime":"2023-10-17T09:00:00:Z","depth":0,"parameterNumber":2,"parameterNumberName":"U-component_of_WINDS"},"data":[0,0,0,0,0,0,0,0,0,0,0,0,0,0,0,0,0,0,0,0,0,0,0,0,0,0,0,0,0,0,0,0,0,0,0,0,0,0,0,0,0,0,0,0,0,0,0,0,0,0,0,0,0,0,0,0,0,0,1.4216,1.4217,0,1.4308,1.4309,1.431,1.4319,1.4318,1.4317,1.4316,1.4415,1.4419,1.4422,0,0,0,0,0,0,0,0,0,0,0,0,0,1.4053,1.4056,1.4216,1.4217,1.4218,1.4308,1.4309,1.431,1.4319,1.4318,1.4317,1.4316,1.4414,1.4418,1.4423,0,0,0,0,0,0,0,0,0,0,0,0,0,1.4132,1.4057,1.4216,1.4233,1.4236,1.4308,1.4309,1.4311,1.432,1.4318,1.4317,1.4315,1.4413,1.4418,1.4423,1.4485,0,0,1.4439,1.4442,0,0,0,0,0,0,0,0,1.4128,1.4138,1.423,1.4232,1.4235,1.4301,1.4288,1.4369,1.432,1.4288,1.4316,1.4315,1.4379,1.4387,1.4407,1.4489,1.4494,1.444,1.4443,1.4445,1.4447,0,0,0,0,0,0,0,1.4122,1.4134,1.4253,1.4231,1.4234,1.4238,1.4248,1.4303,1.4341,1.4291,1.4292,1.4302,1.438,1.4402,1.441,1.4495,1.444,1.4444,1.4448,1.445,1.4634,1.4636,0,0,0,0,0,0,1.4113,1.413,1.425,1.4255,1.4177,1.4243,1.4253,1.4281,1.434,1.4347,1.4303,1.4302,1.4394,1.4403,1.4413,1.449,1.4445,1.445,1.4453,1.4632,1.4634,1.4636,0,0,0,0,0,0,1.4109,1.4123,1.4246,1.4193,1.4209,1.4247,1.4278,1.4284,1.4306,1.4349,1.4356,1.4319,1.4393,1.4406,1.4467,1.4493,1.4453,1.4457,1.463,1.4633,1.4635,1.4643,0,0,0,0,0,0,1.4105,1.4122,1.4145,1.4193,1.4211,1.4296,1.428,1.4287,1.4314,1.4314,1.4366,1.4373,1.4393,1.4459,1.4472,1.45,1.4462,1.4628,1.4631,1.4635,1.464,1.4645,1.465,0,0,0,0,0,1.4099,1.4144,1.4146,1.416,1.424,1.4298,1.4309,1.4329,1.4316,1.434,1.4369,1.4371,1.4488,1.4465,1.448,1.451,1.4627,1.4631,1.4634,1.4638,1.4644,1.4649,0,0,0,0,0,0,1.4099,1.415,1.4153,1.4215,1.4252,1.4299,1.433,1.4335,1.4377,1.4375,1.44,1.4412,1.4472,1.4497,1.4471,1.4573,1.4556,1.4563,1.4554,1.456,1.4565,1.4558,1.4466,0,0,0,0,0,1.4105,1.4147,1.419,1.4241,1.4259,1.4291,1.4317,1.433,1.437,1.4386,1.4418,1.4458,1.4504,1.4534,1.4578,1.4644,1.4656,1.4672,1.4677,1.468,1.4686,1.4724,1.4732,1.4649,1.4649,1.4649,0,0,1.4121,1.4154,1.4179,1.4242,1.4272,1.4315,1.4304,1.4351,1.4384,1.4393,1.4453,1.4478,1.4525,1.4588,1.4618,1.4611,1.4712,1.4685,1.4688,1.4692,1.4729,1.4736,1.4743,1.4652,1.4651,1.4651,0,0,1.417,1.4199,1.4245,1.4275,1.432,1.4342,1.4353,1.44,1.4417,1.4476,1.4485,1.4525,1.4604,1.4636,1.4663,1.4727,1.4731,1.4741,1.4765,1.4801,1.4807,1.4813,1.4836,1.4844,1.4746,1.4746,1.4746,0,1.4184,1.4248,1.4268,1.4314,1.4342,1.4352,1.4399,1.4428,1.4486,1.4506,1.4497,1.4595,1.4627,1.4699,1.4715,1.4736,1.4751,1.4735,1.4805,1.4811,1.4817,1.4839,1.4847,1.4747,1.4747,1.4747,1.4747,0,1.4262,1.4307,1.4339,1.4393,1.4425,1.4471,1.45,1.453,1.454,1.4563,1.4625,1.4664,1.4716,1.4735,1.4746,1.4809,1.4803,1.4799,1.4783,1.4825,1.4846,1.4855,1.4748,1.4748,1.4748,1.4748,0,0,1.4314,1.4379,1.439,1.4415,1.4466,1.4502,1.455,1.46,1.4626,1.4666,1.4708,1.4774,1.4771,1.4801,1.4817,1.4849,1.4897,1.4841,1.4843,1.485,1.497,1.4972,1.4981,1.49,1.4902,1.4904,1.4966,0,1.4369,1.4452,1.4472,1.4544,1.4586,1.4597,1.4639,1.4676,1.4699,1.4739,1.4765,1.4812,1.4804,1.4823,1.4855,1.4884,1.4921,1.488,1.494,1.4942,1.4928,1.4992,1.4995,1.5051,1.4974,1.4976,1.4977,0,1.4444,1.4485,1.456,1.4607,1.4625,1.4662,1.471,1.4749,1.4792,1.4806,1.4841,1.4853,1.4905,1.4886,1.4959,1.493,1.4956,1.4975,1.4977,1.4983,1.4961,1.5,1.507,1.5078,1.499,1.4989,1.4988,0,1.4474,1.4548,1.4603,1.4624,1.468,1.4705,1.473,1.4771,1.4801,1.4844,1.4863,1.4912,1.4939,1.4977,1.5003,1.4987,1.5074,1.5057,1.5088,1.5088,1.5106,1.5104,1.518,1.5123,1.5123,1.5123,1.5123,0,1.4533,1.4579,1.4617,1.465,1.4703,1.4727,1.4778,1.4804,1.484,1.4881,1.4894,1.4931,1.4963,1.5006,1.5027,1.5084,1.5096,1.511,1.5115,1.5109,1.5107,1.5126,1.5123,1.5125,1.5125,1.5124,1.5124,0,1.4575,1.4602,1.4662,1.471,1.4723,1.476,1.4801,1.4835,1.4859,1.491,1.4923,1.4961,1.5012,1.5041,1.5106,1.512,1.5183,1.5187,1.5168,1.517,1.52,1.5197,1.5291,1.5304,1.5238,1.5239,1.5239,0,1.4611,1.4646,1.4697,1.4724,1.4749,1.4793,1.4822,1.4848,1.4879,1.4931,1.4959,1.501,1.5053,1.5134,1.5168,1.5218,1.5222,1.5252,1.523,1.5223,1.5223,1.522,1.5224,1.5256,1.5256,1.5257,1.5257,0,1.4672,1.4683,1.4725,1.4771,1.4806,1.4844,1.4883,1.4905,1.4937,1.4971,1.5022,1.5055,1.5121,1.5172,1.5225,1.5252,1.5261,1.5264,1.5274,1.5267,1.5255,1.5262,1.5178,1.5261,1.5261,1.5261,1.526,1.526,1.4712,1.4744,1.4785,1.4831,1.4862,1.4898,1.4932,1.496,1.5003,1.5057,1.507,1.5124,1.5168,1.5239,1.5268,1.5312,1.5307,1.5321,1.5325,1.5328,1.5329,1.5248,1.5322,1.5322,1.5322,1.5322,1.5322,0,1.4773,1.48,1.4842,1.4894,1.4931,1.4935,1.4978,1.5008,1.5055,1.5095,1.5136,1.5196,1.5246,1.5284,1.5336,1.5364,1.5369,1.5376,1.5374,1.5381,1.533,1.5316,1.5371,1.5371,1.5371,1.5371,1.5371,1.5371,1.4809,1.4863,1.488,1.4951,1.4979,1.5031,1.5055,1.5088,1.512,1.5185,1.5226,1.525,1.529,1.5345,1.5391,1.5402,1.542,1.5427,1.5438,1.539,1.5384,1.5379,1.5366,1.5431,1.5431,1.5485,1.5485,1.5485]},{"header":{"parameterUnit":"m.s-1","parameterCategory":1,"la1":30.2991,"la2":30.254,"lo1":-89.0895,"lo2":-89.0444,"dy":0.0017,"dx":0.0017,"nx":28,"ny":28,"refTime":"2023-10-17T09:00:00:Z","depth":0,"parameterNumber":3,"parameterNumberName":"V-component_of_WINDS"},"data":[0,0,0,0,0,0,0,0,0,0,0,0,0,0,0,0,0,0,0,0,0,0,0,0,0,0,0,0,0,0,0,0,0,0,0,0,0,0,0,0,0,0,0,0,0,0,0,0,0,0,0,0,0,0,0,0,0,0,-0.2779,-0.278,0,-0.2855,-0.2856,-0.2857,-0.2951,-0.2952,-0.2954,-0.2955,-0.3032,-0.3033,-0.3033,0,0,0,0,0,0,0,0,0,0,0,0,0,-0.2716,-0.2717,-0.2779,-0.278,-0.2781,-0.2855,-0.2856,-0.2857,-0.2951,-0.2952,-0.2954,-0.2956,-0.3032,-0.3033,-0.3033,0,0,0,0,0,0,0,0,0,0,0,0,0,-0.2763,-0.2717,-0.2779,-0.2836,-0.2842,-0.2854,-0.2856,-0.2857,-0.295,-0.2952,-0.2955,-0.2957,-0.3032,-0.3033,-0.3033,-0.2995,0,0,-0.3036,-0.3037,0,0,0,0,0,0,0,0,-0.276,-0.2765,-0.2827,-0.2832,-0.2839,-0.2896,-0.2862,-0.2903,-0.295,-0.2909,-0.2955,-0.2958,-0.2985,-0.299,-0.2999,-0.2998,-0.3002,-0.3037,-0.3037,-0.3038,-0.3038,0,0,0,0,0,0,0,-0.2757,-0.2762,-0.2809,-0.2828,-0.2835,-0.2859,-0.2868,-0.287,-0.2933,-0.2913,-0.292,-0.2928,-0.2989,-0.2998,-0.3002,-0.3003,-0.3037,-0.3037,-0.3038,-0.3038,-0.2978,-0.2976,0,0,0,0,0,0,-0.2745,-0.2759,-0.2807,-0.2811,-0.2804,-0.2858,-0.2868,-0.2875,-0.2934,-0.2945,-0.2926,-0.2932,-0.2995,-0.3,-0.3005,-0.2967,-0.3038,-0.3038,-0.3039,-0.298,-0.2978,-0.2975,0,0,0,0,0,0,-0.2743,-0.2748,-0.2803,-0.2787,-0.2796,-0.2857,-0.2864,-0.2876,-0.2885,-0.2943,-0.2955,-0.2924,-0.2997,-0.3003,-0.2998,-0.297,-0.3039,-0.304,-0.2983,-0.298,-0.2977,-0.2887,0,0,0,0,0,0,-0.2741,-0.2747,-0.2732,-0.2786,-0.2796,-0.2794,-0.2862,-0.2875,-0.2887,-0.2895,-0.2945,-0.2955,-0.2999,-0.2996,-0.2998,-0.2973,-0.3041,-0.2986,-0.2981,-0.2978,-0.2893,-0.2881,-0.2871,0,0,0,0,0,-0.2738,-0.2703,-0.2731,-0.2736,-0.2779,-0.2793,-0.2799,-0.2851,-0.2884,-0.2871,-0.2909,-0.2953,-0.2972,-0.2994,-0.2998,-0.2972,-0.2988,-0.2983,-0.2978,-0.2898,-0.2884,-0.2872,0,0,0,0,0,0,-0.2644,-0.2711,-0.2743,-0.2724,-0.2752,-0.2808,-0.2793,-0.2833,-0.2852,-0.286,-0.2923,-0.2934,-0.2921,-0.2946,-0.2969,-0.294,-0.2987,-0.2982,-0.2925,-0.2912,-0.2901,-0.2896,-0.3041,0,0,0,0,0,-0.2621,-0.2626,-0.2684,-0.2662,-0.2675,-0.2731,-0.2738,-0.2777,-0.2808,-0.282,-0.2858,-0.2886,-0.29,-0.2906,-0.2921,-0.2896,-0.291,-0.2881,-0.287,-0.2861,-0.2857,-0.285,-0.2839,-0.2959,-0.2959,-0.2959,0,0,-0.2573,-0.2611,-0.261,-0.2644,-0.267,-0.2675,-0.274,-0.2741,-0.2746,-0.282,-0.2819,-0.2846,-0.2883,-0.2869,-0.2864,-0.2889,-0.2827,-0.2855,-0.2847,-0.2848,-0.2844,-0.2832,-0.2822,-0.2956,-0.2956,-0.2957,0,0,-0.249,-0.2518,-0.2504,-0.2529,-0.2569,-0.2607,-0.2603,-0.2654,-0.2676,-0.2675,-0.2732,-0.2738,-0.2758,-0.2783,-0.2798,-0.2726,-0.277,-0.2729,-0.2674,-0.2666,-0.2656,-0.2648,-0.2626,-0.2617,-0.2725,-0.2725,-0.2724,0,-0.2427,-0.2436,-0.2492,-0.2491,-0.2505,-0.2573,-0.2561,-0.2583,-0.2624,-0.2633,-0.266,-0.2689,-0.2718,-0.2712,-0.2695,-0.2704,-0.2704,-0.2725,-0.2653,-0.2646,-0.2639,-0.2619,-0.261,-0.272,-0.272,-0.2721,-0.2721,0,-0.2357,-0.2363,-0.2347,-0.2387,-0.24,-0.2392,-0.2449,-0.2454,-0.2491,-0.2527,-0.2527,-0.2564,-0.2589,-0.259,-0.2625,-0.259,-0.2605,-0.2641,-0.269,-0.2622,-0.2604,-0.2596,-0.2713,-0.2714,-0.2716,-0.2717,0,0,-0.2218,-0.229,-0.2284,-0.2304,-0.2353,-0.2359,-0.2355,-0.2381,-0.2386,-0.2412,-0.2413,-0.243,-0.2465,-0.2482,-0.2521,-0.2513,-0.2459,-0.2552,-0.2554,-0.2536,-0.2426,-0.2401,-0.2391,-0.2487,-0.2485,-0.2484,-0.2425,0,-0.2146,-0.2146,-0.2197,-0.2182,-0.219,-0.2255,-0.2253,-0.2283,-0.2316,-0.2328,-0.2365,-0.2377,-0.242,-0.2432,-0.2427,-0.2466,-0.2438,-0.2471,-0.249,-0.249,-0.2482,-0.2381,-0.2353,-0.2295,-0.2418,-0.2416,-0.2415,0,-0.2063,-0.2086,-0.2073,-0.2125,-0.213,-0.2127,-0.2156,-0.2166,-0.2202,-0.2227,-0.2247,-0.2292,-0.2294,-0.2338,-0.2344,-0.2365,-0.2376,-0.2397,-0.2396,-0.2402,-0.2451,-0.2387,-0.2277,-0.2269,-0.2404,-0.2405,-0.2406,0,-0.1967,-0.1994,-0.1991,-0.2006,-0.2066,-0.2063,-0.2087,-0.2126,-0.2139,-0.2164,-0.2174,-0.2198,-0.2212,-0.2231,-0.2282,-0.2309,-0.2282,-0.233,-0.2305,-0.2304,-0.2299,-0.2299,-0.2192,-0.23,-0.23,-0.2301,-0.2301,0,-0.1884,-0.1873,-0.1949,-0.1947,-0.1939,-0.1998,-0.1988,-0.2019,-0.2053,-0.2059,-0.2116,-0.2121,-0.2186,-0.2199,-0.2239,-0.2239,-0.2244,-0.2266,-0.2277,-0.2263,-0.226,-0.2273,-0.2279,-0.2298,-0.2299,-0.2299,-0.23,0,-0.1776,-0.1825,-0.1827,-0.1883,-0.1898,-0.1889,-0.1939,-0.194,-0.1977,-0.1984,-0.199,-0.2048,-0.2066,-0.2118,-0.2149,-0.2176,-0.2166,-0.2185,-0.2154,-0.2162,-0.2136,-0.2139,-0.2035,-0.2026,-0.2137,-0.2135,-0.2134,0,-0.1721,-0.1715,-0.1772,-0.178,-0.1803,-0.1815,-0.183,-0.1887,-0.19,-0.1942,-0.1939,-0.1962,-0.1983,-0.201,-0.2055,-0.208,-0.2102,-0.2064,-0.2106,-0.2093,-0.2106,-0.2107,-0.2108,-0.2056,-0.2054,-0.2053,-0.2052,0,-0.1619,-0.1645,-0.1663,-0.169,-0.1705,-0.1729,-0.1756,-0.176,-0.1825,-0.1837,-0.1856,-0.1873,-0.1906,-0.1929,-0.1961,-0.1988,-0.2032,-0.2038,-0.2035,-0.2021,-0.2005,-0.2017,-0.2133,-0.2041,-0.2042,-0.2043,-0.2043,-0.2044,-0.1539,-0.1538,-0.1578,-0.1597,-0.1624,-0.1649,-0.1654,-0.1692,-0.171,-0.1741,-0.1774,-0.1791,-0.183,-0.1878,-0.1902,-0.1917,-0.194,-0.1933,-0.1932,-0.1931,-0.1926,-0.2,-0.1923,-0.1923,-0.1923,-0.1924,-0.1924,0,-0.1443,-0.1473,-0.1489,-0.1527,-0.1542,-0.1581,-0.1614,-0.1625,-0.1639,-0.1671,-0.1692,-0.1716,-0.1739,-0.1787,-0.1815,-0.1818,-0.1839,-0.1824,-0.1825,-0.1832,-0.1902,-0.1904,-0.1806,-0.1806,-0.1806,-0.1806,-0.1806,-0.1806,-0.1396,-0.1398,-0.1428,-0.1444,-0.1474,-0.1491,-0.1507,-0.1531,-0.1558,-0.1582,-0.1602,-0.1633,-0.1673,-0.1704,-0.1728,-0.1742,-0.1751,-0.173,-0.175,-0.1815,-0.1826,-0.1837,-0.184,-0.173,-0.173,-0.1679,-0.1679,-0.1678]}]]